Flag for Australia Weather past 2 weeks in Cairns, Queensland, Australia

Now
75 °F

Passing clouds.


Feels Like: 77 °F
Forecast: 68 / 77 °F
Wind: 10 mph from Southeast

Location: Cairns Airport

Current Time: Aug 2, 2014 at 10:23:45 AM

Latest Report: Aug 2, 2014 at 9:30 AM


Visibility: N/A

Pressure: 30.09 "Hg

Humidity: 65%

Dew point: 63 °F

Location of CairnsLocation

Historic Weather in Cairns — Graph

°F

Cairns temperature yesterday

Maximum temperature yesterday: 81 °F (at 11:30 AM)
Minimum temperature yesterday: 63 °F (at 3:30 AM)
Average temperature yesterday: 71 °F

Past Weeks' High & Low Weather Summary

 TemperatureHumidityPressure
High81 °F (Jul 18, 12:30 PM)100% (Jul 27, 8:00 AM)30.18 "Hg (Jul 27, 8:00 AM)
Low52 °F (Jul 19, 3:00 AM)24% (Jul 18, 2:00 PM)29.95 "Hg (Jul 23, 3:00 PM)
Average70 °F72%30.07 "Hg
* Reported Jul 18 9:00 AM — Aug 2 9:00 AM, Cairns, Weather by CustomWeather, © 2014

Note: Actual official high and low records may vary slightly from our data, if they occured in-between our weather recording intervals... More about our weather records

Advertising

Cairns weather history for previous 24 hours

 ConditionsComfort  
Time TempWeatherWind HumidityBarometerVisibility
9:00 AM
Aug 2
73 °FPassing clouds.10 mph69%30.07 "HgN/A
8:30 AM70 °FPassing clouds.2 mph83%30.07 "HgN/A
8:00 AM68 °FPassing clouds.1 mph88%30.07 "HgN/A
7:30 AM64 °FPassing clouds.No wind94%30.07 "HgN/A
7:00 AM63 °FPassing clouds.3 mph100%30.07 "HgN/A
6:30 AM63 °FLight fog.No wind100%30.04 "HgN/A
6:00 AM63 °FPassing clouds.1 mph94%30.04 "HgN/A
5:30 AM63 °FClear.No wind100%30.01 "Hg10 mi
5:00 AM64 °FPassing clouds.6 mph94%30.01 "HgN/A
4:30 AM66 °FPassing clouds.7 mph88%30.01 "HgN/A
4:00 AM64 °FPassing clouds.No wind94%30.01 "HgN/A
3:30 AM63 °FPassing clouds.3 mph100%30.01 "HgN/A
3:00 AM66 °FPassing clouds.5 mph88%30.01 "HgN/A
2:30 AM66 °FPassing clouds.3 mph94%30.01 "HgN/A
2:00 AM64 °FClear.No wind100%30.04 "Hg10 mi
1:30 AM64 °FClear.No wind100%30.04 "Hg10 mi
1:00 AM64 °FClear.No wind100%30.04 "Hg10 mi
12:30 AM64 °FClear.1 mph100%30.04 "Hg10 mi
12:00 AM64 °FClear.3 mph100%30.04 "Hg10 mi
11:30 PM
Aug 1
66 °FClear.5 mph94%30.04 "Hg10 mi
11:00 PM66 °FClear.No wind94%30.04 "Hg10 mi
10:30 PM68 °FPassing clouds.No wind88%30.04 "HgN/A
10:00 PM70 °FPassing clouds.6 mph83%30.07 "HgN/A
9:30 PM66 °FPassing clouds.No wind94%30.07 "HgN/A
9:00 PM70 °FPassing clouds.No wind83%30.04 "HgN/A
8:30 PM70 °FPassing clouds.2 mph88%30.04 "HgN/A
8:00 PM70 °FPassing clouds.No wind83%30.04 "HgN/A
7:30 PM72 °FPassing clouds.5 mph83%30.01 "HgN/A
7:00 PM72 °FPassing clouds.6 mph83%30.01 "HgN/A
6:00 PM75 °FPassing clouds.8 mph74%29.98 "HgN/A
5:00 PM77 °FPassing clouds.8 mph69%29.95 "HgN/A
4:00 PM79 °FPassing clouds.9 mph65%29.95 "HgN/A
3:00 PM79 °FPassing clouds.9 mph61%29.98 "HgN/A
2:30 PM79 °FPassing clouds.10 mph61%29.98 "HgN/A
2:00 PM77 °FPassing clouds.12 mph69%29.98 "HgN/A
1:30 PM79 °FPassing clouds.13 mph61%30.01 "HgN/A
1:00 PM79 °FScattered clouds.14 mph65%30.01 "HgN/A
12:00 PM81 °FScattered clouds.7 mph48%30.04 "HgN/A
11:30 AM81 °FScattered clouds.6 mph51%30.04 "HgN/A
11:00 AM79 °FScattered clouds.7 mph54%30.04 "HgN/A
10:30 AM79 °FPartly sunny.9 mph54%30.07 "HgN/A
10:00 AM77 °FPassing clouds.8 mph61%30.07 "HgN/A
Weather by CustomWeather, © 2014

See weather overviewHow to use our weather pages